Weather History for Fort Hood, TX

Change the Weather History Date:

Saturday, October 20, 2012

  Actual Average Record
Temperature  
Mean Temperature 70 °F -  
Max Temperature 86 °F 75 °F 89 °F (2004)
Min Temperature 55 °F 56 °F 42 °F (2006)
Cooling Degree Days 6    
Growing Degree Days 20 (Base 50)    
Moisture  
Dew Point 58 °F    
Average Humidity 65    
Maximum Humidity 83    
Minimum Humidity 48    
Precipitation  
Precipitation 0.00 in - - ()
Sea Level Pressure  
Sea Level Pressure 29.86 in    
Wind  
Wind Speed 12 mph (South)    
Max Wind Speed 23 mph    
Max Gust Speed 30 mph    
Visibility 7 miles    
Events      
Averages and records for this station are not official NWS values.
T = Trace of Precipitation, MM = Missing Value Source: NWS Daily Summary

Daily Weather History Graph

Daily Weather History Graph

Search for Another Location

Airport:

Trip Planner

Search our weather history database for the weather conditions in past years. The results will help you decide how hot, cold, wet, or windy it might be!

Date:

Astronomy

Oct. 20, 2012 Rise Set
Actual Time 7:37 AM CDT 6:53 PM CDT
Civil Twilight 7:13 AM CDT 7:18 PM CDT
Nautical Twilight 6:45 AM CDT 7:46 PM CDT
Astronomical Twilight 6:17 AM CDT 8:14 PM CDT
Moon 1:03 PM CDT (10/20) 11:51 PM CDT (10/20)
Length of Visible Light 12h 04m
Length of Day
11h 15m
Waxing Crescent, 34% of the Moon is Illuminated
Oct 20
Waxing Crescent
Oct 21
First Quarter
Oct 29
Full
Nov 6
Last Quarter
Nov 13
New

Hourly Weather History & Observations

Time (CDT) Temp. Heat Index Dew Point Humidity Pressure Visibility Wind Dir Wind Speed Gust Speed Precip Events Conditions
12:55 AM 57.2 °F - 37.4 °F 48% 29.93 in 7.0 mi South 8.1 mph - N/A   Clear
1:55 AM 59.0 °F - 39.2 °F 48% 29.92 in 7.0 mi South 6.9 mph - N/A   Clear
2:55 AM 57.2 °F - 39.2 °F 51% 29.91 in 7.0 mi South 9.2 mph - N/A   Clear
3:55 AM 55.4 °F - 39.2 °F 54% 29.89 in 7.0 mi SSE 8.1 mph - N/A   Clear
4:55 AM 55.4 °F - 41.0 °F 58% 29.89 in 7.0 mi SSE 8.1 mph - N/A   Clear
5:55 AM 57.2 °F - 42.8 °F 59% 29.89 in 7.0 mi SSE 10.4 mph - N/A   Clear
6:55 AM 57.2 °F - 44.6 °F 63% 29.90 in 7.0 mi SSE 9.2 mph - N/A   Clear
7:55 AM 57.2 °F - 48.2 °F 72% 29.88 in 7.0 mi South 8.1 mph - N/A   Partly Cloudy
8:11 AM 59.0 °F - 48.2 °F 67% 29.90 in 7.0 mi SSE 6.9 mph - N/A   Mostly Cloudy
8:55 AM 62.6 °F - 55.4 °F 77% 29.91 in 7.0 mi South 9.2 mph - N/A   Mostly Cloudy
9:55 AM 68.0 °F - 60.8 °F 78% 29.91 in 7.0 mi South 11.5 mph - N/A   Mostly Cloudy
10:55 AM 75.2 °F - 66.2 °F 73% 29.90 in 7.0 mi South 13.8 mph 20.7 mph N/A   Mostly Cloudy
11:55 AM 78.8 °F - 68.0 °F 69% 29.89 in 7.0 mi SSW 18.4 mph 25.3 mph N/A   Mostly Cloudy
12:55 PM 80.6 °F 83.9 °F 69.8 °F 70% 29.86 in 7.0 mi South 18.4 mph - N/A   Mostly Cloudy
1:22 PM 82.4 °F 85.4 °F 68.0 °F 62% 29.85 in 7.0 mi South 19.6 mph 29.9 mph N/A   Scattered Clouds
1:55 PM 84.2 °F 87.3 °F 68.0 °F 58% 29.82 in 7.0 mi South 23.0 mph 27.6 mph N/A   Scattered Clouds
2:55 PM 86.0 °F 89.4 °F 68.0 °F 55% 29.79 in 7.0 mi South 19.6 mph 28.8 mph N/A   Scattered Clouds
3:55 PM 86.0 °F 88.2 °F 66.2 °F 51% 29.78 in 7.0 mi South 19.6 mph 28.8 mph N/A   Partly Cloudy
4:55 PM 86.0 °F 90.4 °F 69.8 °F 58% 29.78 in 7.0 mi SSE 17.3 mph 25.3 mph N/A   Partly Cloudy
5:55 PM 82.4 °F 85.4 °F 68.0 °F 62% 29.78 in 7.0 mi South 17.3 mph 23.0 mph N/A   Partly Cloudy
6:55 PM 80.6 °F 83.2 °F 68.0 °F 65% 29.79 in 7.0 mi South 12.7 mph - N/A   Partly Cloudy
9:55 PM 73.4 °F - 68.0 °F 83% 29.82 in 7.0 mi SSE 11.5 mph - N/A   Scattered Clouds
10:55 PM 77.0 °F - 69.8 °F 78% 29.82 in 7.0 mi SSE 18.4 mph - N/A   Mostly Cloudy
11:36 PM 77.0 °F - 71.6 °F 83% 29.83 in 7.0 mi SSE 18.4 mph 26.5 mph N/A   Mostly Cloudy
11:55 PM 77.0 °F - 71.6 °F 83% 29.81 in 7.0 mi SSE 21.9 mph 27.6 mph N/A   Overcast